Location: Blue Pit
(43.1414°N, 93.2208°W)
Time: 23:40:40
(UTC+00:00)

Sich 1 Rocket - Pass Details

Date: 18 November 2025
Orbit: 611 x 646 km, 82.5° (Epoch: 14 December)

Event Time Altitude Azimuth Distance (km) Brightness Sun altitude
Rises 12:00:36 0° 347° (NNW) 2,955 6.8 -12.7°
Reaches altitude 10° 12:02:53 10° 344° (NNW) 2,036 5.9 -12.3°
Maximum altitude 12:07:19 58° 266° (W) 743 3.6 -11.5°
Drops below altitude 10° 12:11:40 10° 187° (S) 1,998 6.3 -10.7°
Sets 12:13:54 0° 184° (S) 2,894 7.2 -10.3°
